| time (UTC) | temp F | wind direction | speed knots | gust knots | rain 1hr in | rain 24hr in | rain mn in | humidity % | barometer mb |
| 20260904041537 | 80 | 113 | 7.0 | 10.4 | 0.00 | 0.00 | 0.00 | 78 | 1013.0 |
| 20260904040516 | 80 | 113 | 7.0 | 11.3 | 0.00 | 0.00 | 0.00 | 77 | 1013.0 |
| 20260904035516 | 80 | 113 | 4.3 | 9.6 | 0.00 | 0.00 | 0.00 | 77 | 1013.2 |
| 20260904034516 | 80 | 113 | 7.0 | 9.6 | 0.00 | 0.00 | 0.00 | 76 | 1013.0 |
| 20260904033516 | 80 | 113 | 5.2 | 9.6 | 0.00 | 0.00 | 0.00 | 76 | 1013.0 |
| 20260904032536 | 80 | 113 | 7.8 | 10.4 | 0.00 | 0.00 | 0.00 | 75 | 1012.9 |
| 20260904031516 | 81 | 113 | 5.2 | 9.6 | 0.00 | 0.00 | 0.00 | 74 | 1012.7 |
| 20260904030516 | 81 | 113 | 7.0 | 12.2 | 0.00 | 0.00 | 0.00 | 74 | 1012.7 |
| 20260904025516 | 81 | 90 | 6.1 | 11.3 | 0.00 | 0.00 | 0.00 | 74 | 1012.6 |
| 20260904024517 | 81 | 113 | 7.8 | 12.2 | 0.00 | 0.00 | 0.00 | 73 | 1012.5 |
| 20260904023516 | 81 | 113 | 6.1 | 9.6 | 0.00 | 0.00 | 0.00 | 72 | 1012.4 |
| 20260904022516 | 82 | 113 | 5.2 | 10.4 | 0.00 | 0.00 | 0.00 | 71 | 1012.3 |
| 20260904021537 | 82 | 113 | 6.1 | 11.3 | 0.00 | 0.00 | 0.00 | 70 | 1012.1 |
| 20260904020516 | 82 | 113 | 7.8 | 11.3 | 0.00 | 0.00 | 0.00 | 70 | 1012.0 |
| 20260904015536 | 82 | 113 | 9.6 | 15.6 | 0.00 | 0.00 | 0.00 | 69 | 1011.7 |
| 20260904014517 | 83 | 113 | 7.8 | 12.2 | 0.00 | 0.00 | 0.00 | 69 | 1011.5 |
| 20260904013516 | 83 | 113 | 6.1 | 10.4 | 0.00 | 0.00 | 0.00 | 69 | 1011.5 |
| 20260904012556 | 83 | 113 | 7.0 | 11.3 | 0.00 | 0.00 | 0.00 | 67 | 1011.2 |
| 20260904011516 | 84 | 113 | 10.4 | 18.2 | 0.00 | 0.00 | 0.00 | 65 | 1011.1 |
| 20260904010516 | 85 | 113 | 8.7 | 14.8 | 0.00 | 0.00 | 0.00 | 63 | 1011.1 |
| 20260904005516 | 85 | 113 | 7.8 | 13.9 | 0.00 | 0.00 | 0.00 | 62 | 1011.0 |
| 20260904004536 | 86 | 113 | 9.6 | 14.8 | 0.00 | 0.00 | 0.00 | 62 | 1011.0 |
| 20260904003516 | 87 | 113 | 7.8 | 12.2 | 0.00 | 0.00 | 0.00 | 63 | 1010.9 |
| 20260904002516 | 87 | 113 | 9.6 | 14.8 | 0.00 | 0.00 | 0.00 | 62 | 1011.1 |
| 20260904001557 | 87 | 113 | 10.4 | 14.8 | 0.00 | 0.00 | 0.00 | 62 | 1011.0 |
| 20260904000516 | 88 | 113 | 11.3 | 15.6 | 0.00 | 0.00 | 0.00 | 63 | 1010.9 |
| 20260903235516 | 89 | 113 | 11.3 | 17.4 | 0.00 | 0.00 | 0.00 | 63 | 1010.9 |
| 20260903234516 | 90 | 113 | 9.6 | 14.8 | 0.00 | 0.00 | 0.00 | 62 | 1010.8 |
| 20260903233517 | 90 | 113 | 11.3 | 15.6 | 0.00 | 0.00 | 0.00 | 61 | 1010.7 |
| 20260903232516 | 91 | 113 | 9.6 | 13.9 | 0.00 | 0.00 | 0.00 | 61 | 1010.5 |
| 20260903231517 | 91 | 113 | 9.6 | 14.8 | 0.00 | 0.00 | 0.00 | 62 | 1010.5 |
| 20260903230516 | 91 | 113 | 8.7 | 13.9 | 0.00 | 0.00 | 0.00 | 62 | 1010.5 |
| 20260903225516 | 91 | 113 | 8.7 | 15.6 | 0.00 | 0.00 | 0.00 | 63 | 1010.4 |
| 20260903224516 | 91 | 90 | 9.6 | 16.5 | 0.00 | 0.00 | 0.00 | 63 | 1010.4 |
| 20260903223516 | 91 | 113 | 9.6 | 14.8 | 0.00 | 0.00 | 0.00 | 63 | 1010.5 |
| 20260903222516 | 91 | 113 | 7.8 | 10.4 | 0.00 | 0.00 | 0.00 | 63 | 1010.5 |
| 20260903221516 | 91 | 90 | 8.7 | 16.5 | 0.00 | 0.00 | 0.00 | 64 | 1010.6 |
| 20260903220516 | 91 | 113 | 9.6 | 13.0 | 0.00 | 0.00 | 0.00 | 63 | 1010.6 |
| 20260903215516 | 91 | 113 | 8.7 | 13.9 | 0.00 | 0.00 | 0.00 | 63 | 1010.6 |
| 20260903214516 | 91 | 113 | 7.8 | 11.3 | 0.00 | 0.00 | 0.00 | 64 | 1010.6 |
| 20260903213516 | 91 | 113 | 8.7 | 13.9 | 0.00 | 0.00 | 0.00 | 65 | 1010.6 |
| 20260903212516 | 92 | 90 | 7.8 | 13.9 | 0.00 | 0.00 | 0.00 | 63 | 1010.7 |
| 20260903211516 | 92 | 113 | 7.0 | 14.8 | 0.00 | 0.00 | 0.00 | 64 | 1010.8 |
| 20260903210516 | 91 | 113 | 7.8 | 13.9 | 0.00 | 0.00 | 0.00 | 65 | 1010.8 |
| 20260903205516 | 91 | 113 | 8.7 | 12.2 | 0.00 | 0.00 | 0.00 | 65 | 1010.9 |
| 20260903204556 | 90 | 90 | 7.8 | 13.0 | 0.00 | 0.00 | 0.00 | 68 | 1011.0 |
| 20260903203516 | 89 | 113 | 9.6 | 13.9 | 0.00 | 0.00 | 0.00 | 69 | 1011.2 |
| 20260903202516 | 89 | 113 | 8.7 | 13.9 | 0.00 | 0.00 | 0.00 | 69 | 1011.2 |
| 20260903201516 | 89 | 113 | 9.6 | 14.8 | 0.00 | 0.00 | 0.00 | 68 | 1011.4 |
| 20260903200516 | 89 | 113 | 9.6 | 13.9 | 0.00 | 0.00 | 0.00 | 68 | 1011.4 |
| 20260903195516 | 89 | 113 | 8.7 | 12.2 | 0.00 | 0.00 | 0.00 | 70 | 1011.5 |
| 20260903194516 | 88 | 113 | 8.7 | 13.0 | 0.00 | 0.00 | 0.00 | 70 | 1011.7 |
| 20260903193516 | 88 | 135 | 5.2 | 11.3 | 0.00 | 0.00 | 0.00 | 70 | 1011.9 |
| 20260903192516 | 89 | 135 | 9.6 | 13.9 | 0.00 | 0.00 | 0.00 | 69 | 1012.1 |
| 20260903191516 | 89 | 158 | 4.3 | 11.3 | 0.00 | 0.00 | 0.00 | 70 | 1012.2 |
| 20260903190516 | 88 | 135 | 9.6 | 13.9 | 0.00 | 0.00 | 0.00 | 70 | 1012.2 |
| 20260903185516 | 88 | 135 | 10.4 | 15.6 | 0.00 | 0.00 | 0.00 | 71 | 1012.5 |
| 20260903184516 | 88 | 135 | 7.0 | 11.3 | 0.00 | 0.00 | 0.00 | 71 | 1012.5 |
| 20260903183516 | 88 | 113 | 10.4 | 14.8 | 0.00 | 0.00 | 0.00 | 71 | 1012.7 |
| 20260903182516 | 88 | 135 | 10.4 | 17.4 | 0.00 | 0.00 | 0.00 | 70 | 1012.9 |
| 20260903181516 | 88 | 135 | 9.6 | 16.5 | 0.00 | 0.00 | 0.00 | 68 | 1012.9 |
| 20260903180516 | 89 | 135 | 10.4 | 14.8 | 0.00 | 0.00 | 0.00 | 67 | 1013.0 |
| 20260903175516 | 88 | 113 | 10.4 | 14.8 | 0.00 | 0.00 | 0.00 | 68 | 1013.1 |
| 20260903174516 | 88 | 135 | 10.4 | 16.5 | 0.00 | 0.00 | 0.00 | 69 | 1013.2 |
| 20260903173516 | 88 | 135 | 9.6 | 15.6 | 0.00 | 0.00 | 0.00 | 69 | 1013.4 |
| 20260903172516 | 88 | 113 | 9.6 | 14.8 | 0.00 | 0.00 | 0.00 | 69 | 1013.5 |
| 20260903171556 | 87 | 113 | 7.8 | 13.0 | 0.00 | 0.00 | 0.00 | 71 | 1013.6 |
| 20260903170536 | 87 | 135 | 7.8 | 13.9 | 0.00 | 0.00 | 0.00 | 71 | 1013.6 |
| 20260903165516 | 87 | 135 | 6.1 | 11.3 | 0.00 | 0.00 | 0.00 | 73 | 1013.6 |
| 20260903164516 | 86 | 135 | 7.0 | 13.0 | 0.00 | 0.00 | 0.00 | 72 | 1013.6 |
| 20260903163516 | 86 | 135 | 7.8 | 11.3 | 0.00 | 0.00 | 0.00 | 73 | 1013.6 |
| 20260903162516 | 86 | 113 | 7.0 | 12.2 | 0.00 | 0.00 | 0.00 | 74 | 1013.6 |
| 20260903161536 | 85 | 135 | 6.1 | 9.6 | 0.00 | 0.00 | 0.00 | 75 | 1013.6 |
| 20260903160516 | 85 | 113 | 7.0 | 11.3 | 0.00 | 0.00 | 0.00 | 76 | 1013.4 |
| 20260903155516 | 84 | 135 | 5.2 | 9.6 | 0.00 | 0.00 | 0.00 | 77 | 1013.5 |
| 20260903154516 | 84 | 135 | 4.3 | 8.7 | 0.00 | 0.00 | 0.00 | 78 | 1013.5 |
| 20260903153516 | 83 | 113 | 5.2 | 9.6 | 0.00 | 0.00 | 0.00 | 79 | 1013.4 |
| 20260903152516 | 83 | 158 | 4.3 | 8.7 | 0.00 | 0.00 | 0.00 | 80 | 1013.5 |
| 20260903151516 | 82 | 135 | 4.3 | 7.8 | 0.00 | 0.00 | 0.00 | 81 | 1013.4 |
| 20260903150516 | 82 | 135 | 5.2 | 8.7 | 0.00 | 0.00 | 0.00 | 82 | 1013.5 |
| 20260903145516 | 81 | 135 | 5.2 | 8.7 | 0.00 | 0.00 | 0.00 | 83 | 1013.5 |
| 20260903144516 | 80 | 135 | 1.7 | 3.5 | 0.00 | 0.00 | 0.00 | 85 | 1013.4 |
| 20260903143516 | 80 | 113 | 3.5 | 9.6 | 0.00 | 0.00 | 0.00 | 85 | 1013.3 |
| 20260903142516 | 79 | 113 | 5.2 | 8.7 | 0.00 | 0.00 | 0.00 | 86 | 1013.2 |
| 20260903141516 | 78 | 113 | 4.3 | 7.8 | 0.00 | 0.00 | 0.00 | 87 | 1013.1 |
| 20260903140536 | 78 | 113 | 3.5 | 6.1 | 0.00 | 0.00 | 0.00 | 88 | 1013.3 |
| 20260903135516 | 77 | 113 | 2.6 | 6.1 | 0.00 | 0.00 | 0.00 | 89 | 1013.2 |
| 20260903134516 | 77 | 90 | 1.7 | 2.6 | 0.00 | 0.00 | 0.00 | 89 | 1013.1 |
| 20260903133516 | 76 | 90 | 1.7 | 5.2 | 0.00 | 0.00 | 0.00 | 90 | 1013.2 |
| 20260903132536 | 76 | 90 | 1.7 | 5.2 | 0.00 | 0.00 | 0.00 | 90 | 1013.3 |
| 20260903131516 | 75 | 90 | 0.9 | 2.6 | 0.00 | 0.00 | 0.00 | 91 | 1013.2 |
| 20260903130516 | 75 | 0.0 | 1.7 | 0.00 | 0.00 | 0.00 | 90 | 1013.2 | |
| 20260903125536 | 75 | 0.0 | 1.7 | 0.00 | 0.00 | 0.00 | 90 | 1013.2 | |
| 20260903124516 | 75 | 0.0 | 0.9 | 0.00 | 0.00 | 0.00 | 90 | 1013.2 | |
| 20260903123516 | 75 | 0.0 | 1.7 | 0.00 | 0.00 | 0.00 | 90 | 1013.2 | |
| 20260903122516 | 75 | 0.0 | 2.6 | 0.00 | 0.00 | 0.00 | 90 | 1013.1 | |
| 20260903121516 | 75 | 0.0 | 2.6 | 0.00 | 0.00 | 0.00 | 89 | 1013.0 | |
| 20260903120536 | 75 | 90 | 0.9 | 2.6 | 0.00 | 0.00 | 0.00 | 89 | 1013.0 |
| 20260903115516 | 75 | 90 | 0.9 | 2.6 | 0.00 | 0.00 | 0.00 | 89 | 1013.0 |
| 20260903114516 | 75 | 90 | 1.7 | 3.5 | 0.00 | 0.00 | 0.00 | 89 | 1013.0 |
| 20260903113516 | 75 | 0.0 | 2.6 | 0.00 | 0.00 | 0.00 | 89 | 1012.9 | |
| 20260903111516 | 75 | 90 | 1.7 | 5.2 | 0.00 | 0.00 | 0.00 | 88 | 1012.8 |
| 20260903110516 | 75 | 90 | 0.9 | 2.6 | 0.00 | 0.00 | 0.00 | 88 | 1012.7 |
| 20260903105516 | 75 | 90 | 0.9 | 2.6 | 0.00 | 0.00 | 0.00 | 88 | 1012.7 |
| 20260903104516 | 75 | 90 | 0.9 | 2.6 | 0.00 | 0.00 | 0.00 | 88 | 1012.7 |
| 20260903103516 | 75 | 90 | 0.9 | 3.5 | 0.00 | 0.00 | 0.00 | 88 | 1012.7 |
| 20260903102516 | 75 | 0.0 | 2.6 | 0.00 | 0.00 | 0.00 | 87 | 1012.7 | |
| 20260903101556 | 75 | 0.0 | 1.7 | 0.00 | 0.00 | 0.00 | 87 | 1012.8 | |
| 20260903100556 | 75 | 0.0 | 1.7 | 0.00 | 0.00 | 0.00 | 87 | 1012.6 | |
| 20260903095536 | 75 | 113 | 0.9 | 3.5 | 0.00 | 0.00 | 0.00 | 87 | 1012.7 |
| 20260903094516 | 75 | 113 | 0.9 | 3.5 | 0.00 | 0.00 | 0.00 | 87 | 1012.6 |
| 20260903093516 | 75 | 113 | 0.9 | 2.6 | 0.00 | 0.00 | 0.00 | 87 | 1012.6 |
| 20260903092516 | 75 | 113 | 0.9 | 2.6 | 0.00 | 0.00 | 0.00 | 86 | 1012.5 |
| 20260903091516 | 75 | 0.0 | 0.0 | 0.00 | 0.00 | 0.00 | 85 | 1012.5 | |
| 20260903090536 | 75 | 0.0 | 0.0 | 0.00 | 0.00 | 0.00 | 85 | 1012.6 | |
| 20260903085517 | 76 | 0.0 | 0.0 | 0.00 | 0.00 | 0.00 | 85 | 1012.6 | |
| 20260903084517 | 76 | 0.0 | 0.0 | 0.00 | 0.00 | 0.00 | 85 | 1012.6 | |
| 20260903083517 | 76 | 0.0 | 0.0 | 0.00 | 0.00 | 0.00 | 84 | 1012.8 | |
| 20260903082517 | 76 | 0.0 | 0.0 | 0.00 | 0.00 | 0.00 | 84 | 1012.8 | |
| 20260903081517 | 76 | 0.0 | 0.0 | 0.00 | 0.00 | 0.00 | 83 | 1012.8 | |
| 20260903080517 | 76 | 0.0 | 0.0 | 0.00 | 0.00 | 0.00 | 83 | 1012.8 | |
| 20260903075517 | 76 | 0.0 | 0.0 | 0.00 | 0.00 | 0.00 | 83 | 1012.9 | |
| 20260903074517 | 77 | 0.0 | 0.0 | 0.00 | 0.00 | 0.00 | 82 | 1012.8 | |
| 20260903073517 | 77 | 0.0 | 0.9 | 0.00 | 0.00 | 0.00 | 81 | 1012.8 | |
| 20260903072537 | 77 | 0.0 | 0.9 | 0.00 | 0.00 | 0.00 | 79 | 1012.9 | |
| 20260903071537 | 78 | 0.0 | 0.0 | 0.00 | 0.00 | 0.00 | 79 | 1012.9 | |
| 20260903070517 | 78 | 0.0 | 0.0 | 0.00 | 0.00 | 0.00 | 78 | 1013.0 | |
| 20260903065517 | 78 | 0.0 | 0.0 | 0.00 | 0.00 | 0.00 | 78 | 1013.2 | |
| 20260903064517 | 79 | 0.0 | 0.0 | 0.00 | 0.00 | 0.00 | 77 | 1013.2 | |
| 20260903063517 | 79 | 0.0 | 0.0 | 0.00 | 0.00 | 0.00 | 77 | 1013.3 | |
| 20260903062517 | 79 | 0.0 | 2.6 | 0.00 | 0.00 | 0.00 | 76 | 1013.4 | |
| 20260903061517 | 79 | 113 | 0.9 | 3.5 | 0.00 | 0.00 | 0.00 | 76 | 1013.4 |
| 20260903060517 | 80 | 113 | 1.7 | 5.2 | 0.00 | 0.00 | 0.00 | 75 | 1013.4 |
| 20260903055517 | 80 | 90 | 3.5 | 7.8 | 0.00 | 0.00 | 0.00 | 74 | 1013.5 |
| 20260903054517 | 80 | 90 | 5.2 | 9.6 | 0.00 | 0.00 | 0.00 | 74 | 1013.5 |
| 20260903053517 | 81 | 90 | 4.3 | 11.3 | 0.00 | 0.00 | 0.00 | 74 | 1013.6 |
| 20260903052517 | 81 | 113 | 3.5 | 7.0 | 0.00 | 0.00 | 0.00 | 73 | 1013.6 |
| 20260903051517 | 81 | 113 | 4.3 | 8.7 | 0.00 | 0.00 | 0.00 | 73 | 1013.5 |
| 20260903050517 | 82 | 113 | 3.5 | 7.0 | 0.00 | 0.00 | 0.00 | 72 | 1013.4 |
| 20260903045517 | 82 | 90 | 3.5 | 7.0 | 0.00 | 0.00 | 0.00 | 72 | 1013.4 |
| 20260903044517 | 82 | 90 | 3.5 | 7.8 | 0.00 | 0.00 | 0.00 | 71 | 1013.3 |
| 20260903043517 | 82 | 90 | 3.5 | 8.7 | 0.00 | 0.00 | 0.00 | 71 | 1013.1 |
| 20260903042537 | 83 | 90 | 3.5 | 7.0 | 0.00 | 0.00 | 0.00 | 71 | 1013.3 |